Regional Weather Roundup
Issued by NWS

Home | Current Version | Previous Version | Graphics & Text | Print | Product List | Glossary On
Versions: 1 2 3 4 5 6 7 8 9 10 11 12 13 14 15 16 17 18 19 20 21 22 23 24 25 26 27 28 29 30 31 32 33 34 35 36 37 38 39 40 41 42 43 44 45 46 47 48 49 50
000
ASUS43 KLOT 250208
RWRIL

ILLINOIS REGIONAL WEATHER ROUNDUP
NATIONAL WEATHER SERVICE CHICAGO/ROMEOVILLE IL
900 PM CDT TUE APR 24 2018

NOTE: "FAIR" INDICATES FEW OR NO CLOUDS BELOW 12,000 FEET WITH NO
SIGNIFICANT WEATHER AND/OR OBSTRUCTIONS TO VISIBILITY.

* THESE STATIONS ARE NOT UNDER NWS QUALITY CONTROL. THEY ALSO MAY NOT
  REPORT WEATHER SUCH AS PRECIPITATION OR FOG.

ILZ001-002-007-009-015-016-024-250300-
NORTHWEST ILLINOIS

CITY           SKY/WX    TMP DP  RH WIND       PRES   REMARKS
MOLINE         FAIR      66  31  27 NW3       29.99R
STERLING*      FAIR      58  34  40 NW3       29.99R
SAVANNA*       FAIR      65  34  30 NW3       30.00R
$$

ILZ003-004-008-010-011-017-018-250300-
NORTH CENTRAL ILLINOIS

CITY           SKY/WX    TMP DP  RH WIND       PRES   REMARKS
ROCKFORD       FAIR      61  40  45 E7        30.01R
FREEPORT*      FAIR      54  32  43 NE6       30.01S
ROCHELLE*      CLOUDY    57  42  56 E8        30.01R
DE KALB*       FAIR      55  46  71 E6        30.01R
PERU*          FAIR      62  48  60 E7        30.00R
$$

ILZ005-006-012>014-019>023-250300-
NORTHEAST ILLINOIS

CITY           SKY/WX    TMP DP  RH WIND       PRES   REMARKS
CHICAGO-OHARE  FAIR      53  46  77 NE8       30.00R
CHICAGO-MIDWAY FAIR      54  48  80 NE8       30.00S
AURORA         FAIR      57  47  69 NE6       30.00R
LANSING*       FAIR      48  46  95 NE5       30.01S
JOLIET*        FAIR      57  49  75 E7        30.00R
WAUKEGAN       FAIR      47  45  93 N8        30.02R
DUPAGE AIRPORT FAIR      54  48  80 NE5       30.00R
KANKAKEE*      FAIR      52  47  83 NE7       30.01R
WHEELING       FAIR      51  46  83 NE5       30.03R
MORRIS*        FAIR      56  46  69 E5        29.99R
ROMEOVILLE*    FAIR      54  48  78 E7        30.00R
NORTHERLY ISL    N/A     47  44  90 N8          N/A
$$

LMZ740>746-250300-
SOUTHERN LAKE MICHIGAN

STATION/POSITION SKY/WX   TEMP    WIND        PRES    VSBY  WAVE
                          AIR SEA DIR/SP/G                  HT/PER
                          (F)     (DEG/KT/KT) (MB)    (MI)  (FT/S)
HARRISON CRIB              44     360/  5/  6   N/A
BURNHAM HARBOR             47      10/  8/  9   N/A
CALUMET HARBOR             44     340/  6/  8 1015.9R
BURNS HARBOR               43      CALM  /  4 1016.9R
MICHIGAN CITY              44     290/  3/  3   N/A
ST. JOSEPH                 44 44  350/ 10/ 12 1016.7          1/ 3
$$

ILZ025>027-034>036-040-047-049-050-058-095>099-250300-
WEST-CENTRAL ILLINOIS

CITY           SKY/WX    TMP DP  RH WIND       PRES   REMARKS
QUINCY         PTCLDY    63  29  27 NW6       30.01R
MACOMB*        CLOUDY    58  32  36 NW7       30.02R
JACKSONVILLE*  PTCLDY    57  35  42 NW6       29.99R
PITTSFIELD*    MOCLDY    62  34  34 NW5       30.02R
$$

ILZ028>032-037-038-041>044-048-051>054-059>061-250300-
CENTRAL ILLINOIS

CITY           SKY/WX    TMP DP  RH WIND       PRES   REMARKS
PONTIAC        FAIR      54  50  87 E7        30.00R
BLOOMINGTON    FAIR      57  50  77 E7        30.00R
DECATUR        FAIR      54  50  86 SE3       29.98R
PEORIA         FAIR      66  29  24 N3        29.98R
LACON*         FAIR      58  36  42 N3        29.98R
LINCOLN*       FAIR      59  51  76 CALM      29.97S
SPRINGFIELD    FAIR      59  45  59 E5        29.98R
TAYLORVILLE    FAIR      58  52  79 SE3       29.98R
$$

ILZ033-039-045-046-055>057-062-063-250300-
EAST-CENTRAL ILLINOIS

CITY           SKY/WX    TMP DP  RH WIND       PRES   REMARKS
CHAMPAIGN      FAIR      56  50  80 NE6       29.98R
DANVILLE*      FAIR      53  51  92 N5        29.96R
RANTOUL*       FAIR      56  53  88 NE3       29.99R
MATTOON        FAIR      54  52  93 NW3       29.97R
PARIS*         CLOUDY    57  52  84 N3        29.99R
$$

ILZ079-100>102-250300-
SOUTHWEST ILLINOIS

CITY           SKY/WX    TMP DP  RH WIND       PRES   REMARKS
ALTON          CLEAR     55  45  67 CALM      29.98S
BELLEVILLE     PTCLDY    56  52  87 CALM      29.98R
CAHOKIA*       PTCLDY    59  51  75 S5        29.99R
SPARTA*        PTCLDY    54  54 100 CALM      30.01S
$$

ILZ064>066-069>071-074>076-080>082-084>086-088>090-092>094-250300-
SOUTH-CENTRAL ILLINOIS

CITY           SKY/WX    TMP DP  RH WIND       PRES   REMARKS
CARBONDALE     FAIR      58  52  80 CALM      30.00R
CAIRO*         CLOUDY    59  54  84 W3        30.01R
EFFINGHAM*     FAIR      54  53  96 CALM      30.00R
MARION         FAIR      58  54  87 CALM      30.02R
MT. VERNON     FAIR      53  51  93 CALM      30.00R
CENTRALIA*     CLEAR     56  52  88 W3        29.99R
SALEM*         FAIR      57  53  85 CALM      29.99R
METROPOLIS*    CLOUDY    60  54  78 NW3       30.01R
$$

ILZ067-068-072-073-078-083-087-091-250300-
SOUTHEAST ILLINOIS

CITY           SKY/WX    TMP DP  RH WIND       PRES   REMARKS
LAWRENCEVILLE  CLOUDY    59  54  83 MISG      29.98R
FLORA*         FAIR      57  53  85 NW3       29.99R
FAIRFIELD*     FAIR      56  54  94 CALM      29.99R
HARRISBURG*    CLOUDY    58  55  88 CALM      30.00R
ROBINSON*      CLOUDY    56  54  94 CALM      29.98R
CARMI*         CLOUDY    57  55  91 NW5       29.98R
$$

ABBREVIATIONS USED IN REMARKS
   TC - TEMPERATURE IN CELSIUS
  WCI - WIND CHILL INDEX
   HX - HEAT INDEX
  VSB - VISIBILITY
$$




USA.gov is the U.S. government's official web portal to all federal, state and local government web resources and services.